Accueil
METAR-TAF:

METAR-TAF

Aéroports :

Ephrata Municipal Airport

Ephrata, Washington, États-Unis

latitude: 47-18-27N, longitude: 119-30-57W, altitude: 389 m

Observation

Le bulletin a été fait il y a 19 minutes, à 23:53 UTC
Vent 3 kt de nord-ouest
Température 7°C
Humidité 53%
Pression 1019 hPa
Visibilité: 16.1 km
Ciel clair

METAR: KEPH 202353Z AUTO 32003KT 10SM CLR 07/M02 A3009 RMK AO2 SLP201 T00671017 10083 20028 56016

Heure: 16:12 (00:12 UTC)


TAF: absent

Observations et prévisions météorologiques de plus de 4000 aéroports (messages METAR et TAF).

Les stations disponibles sont représentées par des disques jaunes et rouges sur la carte.

Passer la souris dessus pour voir le nom de la station.

Cliquer dessus pour voir les observations et prévisions météorologiques.

Pour changer de carte: cliquez sur les boutons verts avec une croix noire pour zoomer, sur le bouton vert avec un tiret pour effectuer un zoom arrière, ou sur les flèches vertes pour les cartes adjacentes.


METAR-TAF: